Hourly Data Report for October 05, 2017

All times are specified in Local Standard Time (LST). Add 1 hour to adjust for Daylight Saving Time where and when it is observed.

VICTORIA UNIVERSITY CS
BRITISH COLUMBIA

48°27'25.200" N
123°18'16.600" W
60.10 m
1018598
71783
WYJ

Download Data

Hourly Data (October 2017)
Hourly Data Report for October 5, 2017
Temp Definition
°C
Dew Point Temp Definition
°C
Rel Hum Definition
%
Wind Dir Definition
10's deg

Wind Spd Definition
km/h
Visibility Definition
km
Stn Press Definition
kPa
Hmdx Definition


Wind Chill Definition


Weather Definition


TIME
00:00 5.9 3.7 85   0   101.44     LegendNANA
01:00 6.3 5.3 93 35 1   101.46     LegendNANA
02:00 6.2 5.5 95 35 5   101.45     LegendNANA
03:00 6.3 4.3 87 34 4   101.46     LegendNANA
04:00 6.2 3.9 85 34 5   101.47     LegendNANA
05:00 7.3 4.3 81 36 8   101.47     LegendNANA
06:00 8.3 5.8 84 36 7   101.50     LegendNANA
07:00 8.6 4.6 76 36 6   101.53     LegendNANA
08:00 10.9 5.8 71 2 5   101.53     LegendNANA
09:00 12.5 5.8 64 2 7   101.54     LegendNANA
10:00 13.6 6.8 63 2 10   101.53     LegendNANA
11:00 15.7 6.6 55 2 9   101.50     LegendNANA
12:00 17.0 6.4 50 36 7   101.49     LegendNANA
13:00 16.9 3.7 42 2 5   101.43     LegendNANA
14:00 18.0 3.2 37 5 5   101.38     LegendNANA
15:00 17.4 5.3 45 12 3   101.34     LegendNANA
16:00 17.4 4.6 43 17 3   101.29     LegendNANA
17:00 16.1 5.0 48 20 3   101.27     LegendNANA
18:00 12.9 4.0 55 23 4   101.28     LegendNANA
19:00 12.5 4.8 59 23 5   101.25     LegendNANA
20:00 8.8 6.4 85   0   101.26     LegendNANA
21:00 8.3 5.1 80 27 2   101.23     LegendNANA
22:00 7.4 4.5 82 26 2   101.22     LegendNANA
23:00 6.3 4.4 88   0   101.22     LegendNANA

Notes on Data Quality.

Legend

  • E = Estimated
  • M = Missing
  • NA = Not Available
  • ‡ = Partner data that is not subject to review by the National Climate Archives
Date modified: